Crumpler, NC

7:06 AM EST on February 22, 2017 (GMT -0500)
Ashe County

Weather History for KGEV - January, 2011

Change the Weather History Date:

Sunday, January 23, 2011

  Actual Average Record
Temperature  
Mean Temperature 26 °F -  
Max Temperature 33 °F 43 °F 68 °F (1974)
Min Temperature 19 °F 22 °F 1 °F (2014)
Degree Days  
Heating Degree Days 39    
Moisture  
Dew Point 13 °F    
Average Humidity 59    
Maximum Humidity 74    
Minimum Humidity 41    
Precipitation  
Precipitation 0.00 in - - ()
Sea Level Pressure  
Sea Level Pressure 29.98 in    
Wind  
Wind Speed 8 mph (WNW)    
Max Wind Speed 16 mph    
Max Gust Speed 23 mph    
Visibility 10 miles    
Events Snow    
Averages and records for this station are not official NWS values.
T = Trace of Precipitation, MM = Missing Value Source: NWS Daily Summary

Daily Weather History Graph

Daily Weather History Graph

Search for Another Location

Airport or City:

Trip Planner

Search our weather history database for the weather conditions in past years. The results will help you decide how hot, cold, wet, or windy it might be!

Date:

Astronomy

Jan. 23, 2011 Rise Set
Actual Time 7:33 AM EST 5:42 PM EST
Civil Twilight 7:05 AM EST 6:09 PM EST
Nautical Twilight 6:34 AM EST 6:40 PM EST
Astronomical Twilight 6:03 AM EST 7:11 PM EST
Moon 10:30 PM EST (1/23) 9:38 AM EST (1/23)
Length of Visible Light 11h 03m
Length of Day
10h 08m
Waning Gibbous, 81% of the Moon is Illuminated
Jan 23
Waning Gibbous
Jan 26
Last Quarter
Feb 2
New
Feb 11
First Quarter
Feb 18
Full

Hourly Weather History & Observations

Time (EST) Temp. Windchill Dew Point Humidity Pressure Visibility Wind Dir Wind Speed Gust Speed Precip Events Conditions
12:03 AM 21.2 °F 10.9 °F 8.6 °F 58% 29.83 in 10.0 mi West 9.2 mph 17.3 mph N/A   Clear
12:23 AM 21.2 °F 10.9 °F 8.6 °F 58% 29.83 in 10.0 mi West 9.2 mph - N/A   Clear
12:44 AM 21.2 °F 10.9 °F 8.6 °F 58% 29.84 in 10.0 mi West 9.2 mph - N/A   Clear
1:03 AM 21.2 °F 8.9 °F 8.6 °F 58% 29.84 in 10.0 mi West 12.7 mph 17.3 mph N/A   Clear
1:43 AM 21.2 °F 13.6 °F 10.4 °F 63% 29.85 in 10.0 mi West 5.8 mph 16.1 mph N/A   Clear
2:03 AM 21.2 °F 10.9 °F 10.4 °F 63% 29.86 in 10.0 mi West 9.2 mph 16.1 mph N/A   Clear
2:23 AM 21.2 °F 10.9 °F 10.4 °F 63% 29.86 in 10.0 mi West 9.2 mph - N/A   Clear
2:43 AM 21.2 °F 10.9 °F 10.4 °F 63% 29.87 in 10.0 mi WNW 9.2 mph 17.3 mph N/A   Clear
3:03 AM 19.4 °F 9.5 °F 10.4 °F 68% 29.89 in 10.0 mi West 8.1 mph - N/A   Clear
3:23 AM 19.4 °F 7.2 °F 10.4 °F 68% 29.89 in 10.0 mi West 11.5 mph - N/A   Scattered Clouds
3:43 AM 19.4 °F 10.4 °F 10.4 °F 68% 29.90 in 10.0 mi WNW 6.9 mph 18.4 mph N/A   Mostly Cloudy
4:03 AM 19.4 °F 11.5 °F 10.4 °F 68% 29.90 in 10.0 mi West 5.8 mph - N/A Snow Light Snow
4:23 AM 19.4 °F 11.5 °F 12.2 °F 74% 29.90 in 10.0 mi NW 5.8 mph - N/A Snow Light Snow
4:43 AM 19.4 °F 9.5 °F 12.2 °F 74% 29.90 in 10.0 mi NW 8.1 mph - N/A Snow Light Snow
5:03 AM 19.4 °F 6.6 °F 12.2 °F 74% 29.91 in 10.0 mi WNW 12.7 mph 23.0 mph N/A Snow Light Snow
5:23 AM 19.4 °F 7.2 °F 12.2 °F 74% 29.91 in 10.0 mi NW 11.5 mph 16.1 mph N/A Snow Light Snow
5:43 AM 19.4 °F 7.9 °F 12.2 °F 74% 29.91 in 10.0 mi WNW 10.4 mph - N/A Snow Light Snow
6:03 AM 19.4 °F 7.9 °F 12.2 °F 74% 29.91 in 10.0 mi NW 10.4 mph 18.4 mph N/A Snow Light Snow
6:23 AM 19.4 °F 5.0 °F 12.2 °F 74% 29.92 in 10.0 mi WNW 16.1 mph 21.9 mph N/A   Scattered Clouds
6:43 AM 19.4 °F 9.5 °F 12.2 °F 74% 29.93 in 10.0 mi WNW 8.1 mph - N/A   Clear
7:03 AM 19.4 °F 10.4 °F 12.2 °F 74% 29.94 in 10.0 mi WNW 6.9 mph 16.1 mph N/A   Scattered Clouds
7:23 AM 19.4 °F 7.2 °F 12.2 °F 74% 29.94 in 10.0 mi WNW 11.5 mph 19.6 mph N/A   Scattered Clouds
7:43 AM 19.4 °F 7.9 °F 12.2 °F 74% 29.95 in 10.0 mi WNW 10.4 mph - N/A   Scattered Clouds
8:03 AM 19.4 °F 7.9 °F 12.2 °F 74% 29.96 in 10.0 mi WNW 10.4 mph 17.3 mph N/A   Scattered Clouds
8:23 AM 19.4 °F 7.2 °F 12.2 °F 74% 29.96 in 10.0 mi WNW 11.5 mph 19.6 mph N/A   Scattered Clouds
8:43 AM 19.4 °F 7.2 °F 12.2 °F 74% 29.96 in 10.0 mi WNW 11.5 mph 19.6 mph N/A   Scattered Clouds
9:03 AM 19.4 °F 6.0 °F 12.2 °F 74% 29.97 in 10.0 mi WNW 13.8 mph 20.7 mph N/A   Clear
9:23 AM 21.2 °F 8.9 °F 12.2 °F 68% 29.98 in 10.0 mi WNW 12.7 mph 20.7 mph N/A   Clear
9:43 AM 21.2 °F 10.9 °F 12.2 °F 68% 29.99 in 10.0 mi WNW 9.2 mph 21.9 mph N/A   Clear
10:03 AM 23.0 °F 11.1 °F 12.2 °F 63% 29.99 in 10.0 mi West 12.7 mph 19.6 mph N/A   Clear
10:23 AM 24.8 °F 15.3 °F 12.2 °F 59% 30.00 in 10.0 mi WNW 9.2 mph 17.3 mph N/A   Clear
10:43 AM 24.8 °F 20.5 °F 12.2 °F 59% 30.00 in 10.0 mi WSW 3.5 mph - N/A   Clear
11:03 AM 26.6 °F 21.2 °F 12.2 °F 55% 30.00 in 10.0 mi NW 4.6 mph - N/A   Clear
11:24 AM 26.6 °F 22.6 °F 12.2 °F 55% 30.00 in 10.0 mi West 3.5 mph - N/A   Clear
11:44 AM 28.4 °F 23.3 °F 12.2 °F 51% 29.99 in 10.0 mi NW 4.6 mph - N/A   Clear
12:03 PM 30.2 °F 22.6 °F 12.2 °F 47% 29.99 in 10.0 mi NNW 8.1 mph - N/A   Clear
12:23 PM 30.2 °F 26.7 °F 12.2 °F 47% 30.00 in 10.0 mi NW 3.5 mph - N/A   Clear
12:43 PM 32.0 °F 27.5 °F 12.2 °F 44% 29.99 in 10.0 mi NNW 4.6 mph - N/A   Clear
1:03 PM 32.0 °F 24.2 °F 14.0 °F 48% 29.99 in 10.0 mi West 9.2 mph - N/A   Clear
1:23 PM 32.0 °F 25.6 °F 14.0 °F 48% 29.99 in 10.0 mi WNW 6.9 mph - N/A   Clear
1:44 PM 32.0 °F 27.5 °F 12.2 °F 44% 30.00 in 10.0 mi WNW 4.6 mph - N/A   Clear
2:03 PM 33.8 °F 26.4 °F 12.2 °F 41% 29.99 in 10.0 mi NNW 9.2 mph 19.6 mph N/A   Clear
2:23 PM 33.8 °F 26.4 °F 14.0 °F 44% 29.99 in 10.0 mi NNW 9.2 mph - N/A   Clear
2:44 PM 33.8 °F 25.3 °F 14.0 °F 44% 30.00 in 10.0 mi NW 11.5 mph 16.1 mph N/A   Clear
3:03 PM 33.8 °F 23.9 °F 14.0 °F 44% 30.00 in 10.0 mi NW 15.0 mph 21.9 mph N/A   Clear
3:23 PM 33.8 °F 27.7 °F 14.0 °F 44% 30.02 in 10.0 mi NNW 6.9 mph - N/A   Clear
3:43 PM 33.8 °F 26.4 °F 14.0 °F 44% 30.02 in 10.0 mi NNW 9.2 mph - N/A   Clear
4:03 PM 33.8 °F 27.7 °F 14.0 °F 44% 30.03 in 10.0 mi NNW 6.9 mph 10.4 mph N/A   Clear
4:23 PM 32.0 °F 24.2 °F 14.0 °F 48% 30.03 in 10.0 mi NNW 9.2 mph - N/A   Clear
4:44 PM 32.0 °F 26.4 °F 14.0 °F 48% 30.04 in 10.0 mi NW 5.8 mph - N/A   Clear
5:03 PM 32.0 °F 25.6 °F 14.0 °F 48% 30.04 in 10.0 mi NNW 6.9 mph - N/A   Clear
5:23 PM 30.2 °F 26.7 °F 14.0 °F 51% 30.05 in 10.0 mi NW 3.5 mph - N/A   Clear
5:43 PM 30.2 °F 23.4 °F 14.0 °F 51% 30.05 in 10.0 mi NW 6.9 mph - N/A   Clear
6:04 PM 30.2 °F 26.7 °F 14.0 °F 51% 30.06 in 10.0 mi WNW 3.5 mph - N/A   Clear
6:23 PM 30.2 °F 23.4 °F 15.8 °F 55% 30.07 in 10.0 mi WNW 6.9 mph - N/A   Clear
6:43 PM 30.2 °F 23.4 °F 15.8 °F 55% 30.08 in 10.0 mi West 6.9 mph - N/A   Clear
7:03 PM 28.4 °F 24.6 °F 15.8 °F 59% 30.09 in 10.0 mi WSW 3.5 mph - N/A   Clear
7:23 PM 28.4 °F 24.6 °F 14.0 °F 55% 30.09 in 10.0 mi West 3.5 mph - N/A   Clear
7:43 PM 28.4 °F - 14.0 °F 55% 30.10 in 10.0 mi Calm Calm - N/A   Clear
8:03 PM 28.4 °F - 14.0 °F 55% 30.10 in 10.0 mi Calm Calm - N/A   Clear
8:44 PM 28.4 °F - 15.8 °F 59% 30.11 in 10.0 mi Calm Calm - N/A   Clear
9:03 PM 28.4 °F - 14.0 °F 55% 30.11 in 10.0 mi Calm Calm - N/A   Clear
9:23 PM 26.6 °F - 15.8 °F 64% 30.12 in 10.0 mi Calm Calm - N/A   Clear
9:43 PM 26.6 °F - 15.8 °F 64% 30.13 in 10.0 mi Calm Calm - N/A   Clear
10:06 PM 26.6 °F 22.6 °F 15.8 °F 64% 30.13 in 10.0 mi WNW 3.5 mph - N/A   Clear
10:25 PM 26.6 °F - 15.8 °F 64% 30.13 in 10.0 mi Calm Calm - N/A   Clear
11:03 PM 26.6 °F - 15.8 °F 64% 30.13 in 10.0 mi Calm Calm - N/A   Clear
11:23 PM 24.8 °F - 15.8 °F 69% 30.13 in 10.0 mi Calm Calm - N/A   Clear
11:43 PM 24.8 °F - 15.8 °F 69% 30.13 in 10.0 mi Calm Calm - N/A   Clear